Flag for Estonia Weather past 2 weeks in Narva, Estonia

Now
45 °F

Clear.


Feels Like: 43 °F
Forecast: 43 / 55 °F
Wind: 3 mph from Southwest

Location: Narva

Current Time: May 23, 2015 at 4:21:54 AM

Latest Report: May 23, 2015 at 3:00 AM


Visibility: 13 mi

Pressure: 30.03 "Hg

Humidity: 94%

Dew point: 43 °F

Location of NarvaLocation

Historic Weather in Narva — Graph

°F

Narva temperature yesterday

Maximum temperature yesterday: 64 °F (at 2:00 PM)
Minimum temperature yesterday: 38 °F (at 3:00 AM)
Average temperature yesterday: 52 °F

Past Weeks' High & Low Weather Summary

 TemperatureHumidityPressure
High65 °F (May 10, 5:00 PM)100% (May 12, 2:00 AM)30.23 "Hg (May 12, 2:00 AM)
Low31 °F (May 10, 4:00 AM)20% (May 10, 6:00 PM)29.47 "Hg (May 13, 8:00 AM)
Average49 °F73%29.86 "Hg
* Reported May 8 3:00 AM — May 23 3:00 AM, Narva, Weather by CustomWeather, © 2015

Note: Actual official high and low records may vary slightly from our data, if they occured in-between our weather recording intervals... More about our weather records

Advertising

Narva weather history for previous 24 hours

 ConditionsComfort  
Time TempWeatherWind HumidityBarometerVisibility
3:00 AM
Sat, May 23
45 °FClear.3 mph94%30.03 "Hg12 mi
2:00 AM45 °FClear.3 mph94%30.05 "Hg12 mi
1:00 AM46 °FClear.2 mph89%30.06 "Hg12 mi
12:00 AM49 °FClear.2 mph80%30.07 "Hg12 mi
11:00 PM
Fri, May 22
52 °FClear.3 mph73%30.08 "Hg12 mi
10:00 PM54 °FPassing clouds.3 mph67%30.08 "Hg12 mi
9:00 PM57 °FScattered clouds.3 mph58%30.09 "Hg12 mi
8:00 PM60 °FSunny.5 mph50%30.09 "Hg12 mi
7:00 PM62 °FScattered clouds.5 mph47%30.09 "Hg12 mi
6:00 PM62 °FOvercast.2 mph48%30.10 "Hg12 mi
5:00 PM61 °FOvercast.2 mph54%30.12 "Hg12 mi
4:00 PM60 °FOvercast.1 mph52%30.14 "Hg12 mi
3:00 PM59 °FOvercast.3 mph58%30.15 "Hg12 mi
2:00 PM64 °FPassing clouds.1 mph46%30.15 "Hg12 mi
1:00 PM60 °FPassing clouds.2 mph57%30.16 "Hg12 mi
12:00 PM58 °FScattered clouds.1 mph59%30.17 "Hg12 mi
11:00 AM58 °FPassing clouds.2 mph62%30.18 "Hg12 mi
10:00 AM56 °FPassing clouds.2 mph60%30.18 "Hg12 mi
9:00 AM53 °FOvercast.2 mph74%30.17 "Hg12 mi
8:00 AM48 °FPassing clouds.2 mph86%30.17 "Hg12 mi
7:00 AM46 °FPassing clouds.2 mph89%30.16 "Hg12 mi
6:00 AM42 °FOvercast.2 mph96%30.15 "Hg12 mi
5:00 AM39 °FSunny.2 mph97%30.14 "Hg12 mi
4:00 AM40 °FClear.2 mph97%30.13 "Hg12 mi
Weather by CustomWeather, © 2015

See weather overviewHow to use our weather pages